www.pogodaiklimat.ru

Погода и климат >> Архив погоды >> Индонезия >> Jayapura


ПОГОДА в Jayapura

  • Прогноз погоды в Jayapura
  • Монитор погоды в Jayapura
  • Климат города

АРХИВ ПОГОДЫ в Jayapura

Время (UTC), дата Ветер
(напр.,м/с)
 
Видим.   Явления Облачность Т
(С)
Тd
(С)
f
(%)
Тe
(С)
Тes
(С)
Комфортность P
(гПа)
Po
(гПа)
Тmin
(С)
Tmax
(С)
R
(мм)
R24
(мм)
S
(см)
00 19.02 В 4 7000 м осадки на расстоянии {дождь} 9/5 300 м
[Cb cap Ac As]
+27.4 +25.0 87 +39 +41 очень
душно
1011.9 1011.6 +25.6 0.0
03 19.02 Ю 2 8000 м в посл. час дождь 9/4 400 м
[Cb cap Ac As]
+29.6 +26.4 83 +45 +51 опасность
перегрева
1009.5 1009.2 0.3
06 19.02 В 4 9000 м осадки на расстоянии {дождь} 6/4 400 м
[Cb cap Ac As Ci sp]
+29.2 +25.2 79 +42 +45 опасность
перегрева
1007.0 1006.6 2
09 19.02 З 2 9000 м осадки на расстоянии 8/4 400 м
[Cb cap Ac As Ci sp]
+29.4 +26.5 84 +45 +45 опасность
перегрева
1008.6 1008.2
12 19.02 штиль 0 8000 м осадки на расстоянии 9/4 400 м
[Cb cap Ac As Ci sp]
+27.6 +25.7 89 +41 +41 опасность
перегрева
1010.3 1010.0 +31.0
21 19.02 З 2 6000 м мгла 8/1 420 м
[Cu hum Ac As Ci sp]
+25.4 +23.7 90 +35 +35 очень
душно
1008.9 1008.5
00 20.02 ЮВ 2 7000 м мгла 6/4 420 м
[Cu Sc Ac As Ci sp]
+28.2 +25.5 85 +41 +48 опасность
перегрева
1010.2 1009.9 +25.2 3
03 20.02 Ю 2 8000 м мгла 6/4 400 м
[Cb cap Ac As Ci sp]
+31.6 +26.6 75 +49 +60 опасность
перегрева
1007.4 1007.0
06 20.02 С 8 7000 м осадки на расстоянии 5/4 400 м
[Cb cap Ac trans Ci sp]
+31.8 +22.4 58 +41 +42 опасность
перегрева
1005.3 1005.0
09 20.02 СЗ 5 6000 м осадки на расстоянии 8/4 400 м
[Cb cap Ac trans Ci sp]
+30.2 +20.7 57 +37 +37 очень
душно
1006.5 1006.2
12 20.02 штиль 0 5000 м осадки на расстоянии 9/5 400 м
[Cb cap Ac As Ci sp]
+28.0 +24.2 80 +39 +39 очень
душно
1008.6 1008.3 +33.3
21 20.02 штиль 0 7000 м в посл. час дождь 8/4 400 м
[Cb cap Ac As Ci sp]
+25.2 +24.1 94 +35 +35 очень
душно
1008.5 1008.1 0.0
00 21.02 В 4 7000 м осадки на расстоянии {дождь} 6/4 300 м
[Cb cap Ac As Ci sp]
+27.6 +24.9 85 +39 +44 очень
душно
1008.9 1008.6 +25.2 0.0
03 21.02 С 2 6000 м осадки на расстоянии {ливн. осадки} 9/5 400 м
[Cb cap Ac As Ci sp]
+30.0 +25.2 76 +44 +50 опасность
перегрева
1006.6 1006.2 0.9
06 21.02 С 7 6000 м осадки на расстоянии {дождь} 8/4 400 м
[Cb cap Ac As Ci sp]
+31.2 +24.5 68 +44 +45 опасность
перегрева
1003.8 1003.5 0.9
09 21.02 СЗ 6 6000 м осадки на расстоянии 9/5 400 м
[Cb cap Ac As Ci sp]
+29.8 +23.2 68 +40 +40 очень
душно
1005.5 1005.2
12 21.02 З 3 5000 м осадки на расстоянии 9/5 400 м
[Cb cap Ac As Ci sp]
+28.4 +24.6 80 +40 +40 очень
душно
1007.9 1007.6 +32.2
21 21.02 З 2 4000 м в посл. час дождь 10/5 400 м
[Cb cap As op]
+25.4 +24.3 94 +35 +35 очень
душно
1008.9 1008.6 0.3
00 22.02 В 2 9000 м слабый дождь 10/4 300 м
[Cb cap Ac As]
+26.8 +24.2 86 +37 +40 очень
душно
1011.2 1010.8 +25.2 0.5
03 22.02 В 2 7000 м осадки на расстоянии {дождь} 10/4 400 м
[Cb cap Ac As]
+27.4 +25.0 87 +39 +44 очень
душно
1008.2 1007.8 0.2
06 22.02 СВ 4 6000 м слабый дождь 10/3 400 м
[Cb cap Ac As]
+28.2 +25.0 83 +41 +42 опасность
перегрева
1005.0 1004.6 0.0
09 22.02 ЮЗ 3 7000 м осадки на расстоянии {дождь} 10/4 400 м
[Cb cap As op]
+28.0 +25.6 87 +41 +41 опасность
перегрева
1004.9 1004.5 0.0
12 22.02 З 2 8000 м осадки на расстоянии 9/4 400 м
[Cb cap Ac As]
+26.4 +24.5 89 +37 +37 очень
душно
1007.7 1007.3 +29.2 0.0
21 22.02 СЗ 2 5000 м слабый дождь 10/4 400 м
[Cb cap Ac As]
+25.6 +25.1 97 +37 +37 очень
душно
1009.2 1008.8 1
00 23.02 В 2 6000 м мгла {дождь} 8/4 300 м
[Cu med, cong Ac As Ci sp]
+28.4 +25.2 83 +41 +47 опасность
перегрева
1010.3 1009.9 +25.2 2
03 23.02 штиль 0 6000 м осадки на расстоянии {дождь} 8/4 400 м
[Cb cap Ac As Ci sp]
+30.0 +25.7 78 +45 +56 опасность
перегрева
1008.1 1007.7 7
06 23.02 СВ 7 7000 м осадки на расстоянии {дождь} 8/5 400 м
[Cb cap Ac As Ci sp]
+30.4 +24.9 72 +43 +44 опасность
перегрева
1005.5 1005.2 7
09 23.02 СЗ 3 6000 м осадки на расстоянии 9/5 400 м
[Cb cap Ac As Ci sp]
+29.2 +24.6 76 +41 +41 опасность
перегрева
1007.0 1006.7
12 23.02 З 3 5000 м осадки на расстоянии 10/5 400 м
[Cb cap Ac As]
+28.0 +25.3 85 +41 +41 опасность
перегрева
1009.4 1009.1 +31.8
21 23.02 штиль 0 4000 м слабый дождь 10/5 400 м
[Cb cap As op]
+24.6 +24.1 97 +34 +34 очень
душно
1010.4 1010.0 22
00 24.02 Ю 2 5000 м осадки на расстоянии {дождь} 9/4 300 м
[Cb cap Ac As Ci sp]
+26.2 +24.8 92 +37 +42 очень
душно
1011.8 1011.4 +24.4 0.2
03 24.02 В 3 7000 м осадки на расстоянии 5/4 400 м
[Cb calv Ac trans Ci sp]
+28.2 +25.2 84 +41 +51 опасность
перегрева
1009.7 1009.3
06 24.02 СВ 7 7000 м осадки на расстоянии 6/4 400 м
[Cb cap Ac trans Ci sp]
+30.4 +26.2 78 +46 +47 опасность
перегрева
1006.9 1006.6
09 24.02 СЗ 3 6000 м осадки на расстоянии 9/5 400 м
[Cb cap Ac trans Ci sp]
+30.0 +26.3 81 +46 +46 опасность
перегрева
1008.0 1007.7
12 24.02 ЮЗ 3 5000 м осадки на расстоянии 9/5 400 м
[Cb cap Ac As Ci sp]
+27.8 +25.7 88 +41 +41 опасность
перегрева
1010.0 1009.7 +32.0
21 24.02 З 2 6000 м мгла 6/1 420 м
[Cu hum Ac trans Ci sp]
+25.0 +23.9 94 +34 +34 очень
душно
1009.4 1009.1
00 25.02 В 2 7000 м мгла 8/4 300 м
[Cb cap Ac As Ci sp]
+28.8 +25.9 84 +43 +48 опасность
перегрева
1010.4 1010.0 +24.2
03 25.02 СВ 3 8000 м осадки на расстоянии 9/4 400 м
[Cb cap Ac As Ci sp]
+31.0 +26.5 77 +47 +54 опасность
перегрева
1007.8 1007.4
06 25.02 СЗ 3 8000 м осадки на расстоянии 8/4 400 м
[Cb calv Ac trans Cs]
+32.4 +26.6 72 +50 +53 опасность
перегрева
1004.9 1004.5
09 25.02 ЮВ 3 9000 м мгла 9/4 400 м
[Cb cap Ac As Ci sp]
+30.2 +26.5 81 +47 +47 опасность
перегрева
1006.9 1006.5
12 25.02 З 2 9000 м мгла 8/3 420 м
[Cu med, cong Ac trans Ci sp]
+27.4 +25.8 91 +41 +41 опасность
перегрева
1008.9 1008.6 +33.2
21 25.02 штиль 0 5000 м осадки на расстоянии 9/4 400 м
[Cb cap Ac As Ci sp]
+25.6 +24.8 95 +36 +36 очень
душно
1008.7 1084.0

 

Местоположение метеостанции Jayapura (Индонезия): широта -2.59 долгота 140.71 высота над уровнем моря 3 м.

В архиве по умолчанию представлена погода в Jayapura за последнюю неделю. Архивные данные за месяц целиком и за предыдущие месяцы, начиная с января 2011 года, Вы можете получить, выбрав интересующий диапазон дат из раскрывающегося списка и нажав кнопку "Ввод!".

Внимание! Время в таблицах - всемирное. Для получения местного времени необходимо прибавить поправку, которая в Jayapura равна 9 ч.

Смотрите также архив погоды в соседних городах и на ближайших метеорологических станциях:

Погода в Sentani Airport (Индонезия) (21 км)
Погода в Sarmi (Индонезия) (238 км)
Погода в Wamena (Индонезия) (256 км)
Погода в Tanah Merah (Индонезия) (393 км)
Погода в Kokonao (Индонезия) (450 км)
Погода в Enarotali (Индонезия) (504 км)
Погода в Serui (Индонезия) (504 км)
Погода в Biak (Индонезия) (535 км)
Погода в Nabire (Индонезия) (585 км)
Погода в Merauke (Индонезия) (655 км)

Пояснения к столбцам:

Ветер - указаны скорость ветра в м/с - средняя за 10 мин, порывы в срок и между сроками (в фигурных скобках) и направление, откуда дует ветер: С - северный, СВ - северо-восточный, В - восточный, ЮВ - юго-восточный, Ю - южный, ЮЗ - юго-западный, З - западный, СЗ - северо-западный.
Видимость - горизонтальная дальность видимости в метрах или километрах. При видимости от 1 до 10 км при отсутствии осадков обычно наблюдается дымка, при ухудшении видимости до 1 км и менее - туман. В сухую погоду видимость может ухудшаться дымом, пылью или мглою.
Явления - указаны атмосферные явления, наблюдавшиеся в срок или в последний час перед сроком; фигурными скобками обозначены явления, наблюдавшиеся между сроками (за 1-3 часа до срока); квадратными скобками обозначены град или гололедные отложения с указанием их диаметра в мм.
Облачность - указаны через наклонную черту общая и нижняя облачность в баллах и высота нижней границы облаков в метрах; квадратными скобками обозначены формы облаков: Ci - перистые, Cs - перисто-слоистые, Cc - перисто-кучевые, Ac - высококучевые, As - высокослоистые, Sc - слоисто-кучевые, Ns - слоисто-дождевые, Cu - кучевые, Cb - кучево-дождевые. Подробнее классификацию облаков см. в Атласе облаков (PDF).
T - Температура воздуха - температура, измеренная на высоте 2 м над землей.
Td - Температура точки росы - температура, при понижении до которой содержащийся в воздухе водяной пар достигнет насыщения.
f - Относительная влажность воздуха - влажноcть воздуха, измеренная на высоте 2 м над землей.
Te - Эффективная температура - температура, которую ощущает одетый по сезону человек в тени. Характеристика душности погоды. При расчете учитывается влияние влажности воздуха и скорости ветра на теплоощущения человека.
Tes - Эффективная температура на солнце - температура, которую ощущает человек, с поправкой на солнечный нагрев. Характеристика знойности погоды. Зависит от высоты солнца над горизонтом, облачности и скорости ветра. Ночью, в пасмурную погоду, а также при ветре 12 м/с и более поправка равна нулю.
P - Атмосферное давление - приведенное к уровню моря атмосферное давление.
Po - Атмосферное давление - измеренное на уровне метеостанции атмосферное давление.
Tmin - Минимальная температура - минимум температуры воздуха на высоте 2 м над землей.
Tmax - Максимальная температура - максимум температуры воздуха на высоте 2 м над землей.
R - Количество осадков - Количество выпавших осадков за период времени, мм. При наведении курсора мыши на число - период времени, за который выпало указанное количество осадков.
R24 - Количество осадков - Количество выпавших осадков за 24 часа, мм.
S - Снежный покров - Высота снежного покрова, см. При наведении курсора мыши на число - состояние снежного покрова и степень покрытия местности в баллах.